Location: *
(46.1333°S, 161.2167°W)
Time: 10:06:06
(UTC+00:00)

Cosmos 2298 Rocket - Pass Details

Date: 30 October 2020
Orbit: 777 x 783 km, 74.0° (Epoch: 25 November)

Event Time Altitude Azimuth Distance (km) Brightness Sun altitude
Exits shadow 12:48:03 13° 253° (WSW) 2,179 6.1 -22.1°
Maximum altitude 12:50:10 15° 227° (SW) 2,013 6.2 -21.9°
Drops below altitude 10° 12:53:19 10° 191° (SSW) 2,376 7.1 -21.6°
Sets 12:56:48 0° 169° (SSE) 3,313 8.4 -21.2°
